Location: El Chorro
(10.0985°N, 67.3542°W)
Time: 18:56:51
(UTC+00:00)

DMSP B5D1-3 - Pass Details

Date: 15 November 2025
Orbit: 759 x 772 km, 98.5° (Epoch: 06 December)

Event Time Altitude Azimuth Distance (km) Brightness Sun altitude
Rises 22:53:04 0° 15° (NNE) 3,227 7.4 -12.4°
Reaches altitude 10° 22:55:23 10° 17° (NNE) 2,299 6.7 -12.9°
Maximum altitude 23:00:27 75° 102° (ESE) 793 4.4 -14.1°
Drops below altitude 10° 23:05:29 10° 187° (S) 2,292 7.3 -15.3°
Sets 23:07:47 0° 189° (S) 3,216 8.1 -15.8°
